Year,Month,Day,Hour,Minute,Value (Times are PST for insolation in W/m^2)
2019,04,21,00,00,0.00
2019,04,21,00,01,0.00
2019,04,21,00,02,0.00
2019,04,21,00,03,0.00
2019,04,21,00,04,0.00
2019,04,21,00,05,0.00
2019,04,21,00,06,0.00
2019,04,21,00,07,0.00
2019,04,21,00,08,0.00
2019,04,21,00,09,0.00
2019,04,21,00,10,0.00
2019,04,21,00,11,0.00
2019,04,21,00,12,0.00
2019,04,21,00,13,0.00
2019,04,21,00,14,0.00
2019,04,21,00,15,0.00
2019,04,21,00,16,0.00
2019,04,21,00,17,0.00
2019,04,21,00,18,0.00
2019,04,21,00,19,0.00
2019,04,21,00,20,0.00
2019,04,21,00,21,0.00
2019,04,21,00,22,0.00
2019,04,21,00,23,0.00
2019,04,21,00,24,0.00
2019,04,21,00,25,0.00
2019,04,21,00,26,0.00
2019,04,21,00,27,0.00
2019,04,21,00,28,0.00
2019,04,21,00,29,0.00
2019,04,21,00,30,0.00
2019,04,21,00,31,0.00
2019,04,21,00,32,0.00
2019,04,21,00,33,0.00
2019,04,21,00,34,0.00
2019,04,21,00,35,0.00
2019,04,21,00,36,0.00
2019,04,21,00,37,0.00
2019,04,21,00,38,0.00
2019,04,21,00,39,0.00
2019,04,21,00,40,0.00
2019,04,21,00,41,0.00
2019,04,21,00,42,0.00
2019,04,21,00,43,0.00
2019,04,21,00,44,0.00
2019,04,21,00,45,0.00
2019,04,21,00,46,0.00
2019,04,21,00,47,0.00
2019,04,21,00,48,0.00
2019,04,21,00,49,0.00
2019,04,21,00,50,0.00
2019,04,21,00,51,0.00
2019,04,21,00,52,0.00
2019,04,21,00,53,0.00
2019,04,21,00,54,0.00
2019,04,21,00,55,0.00
2019,04,21,00,56,0.00
2019,04,21,00,57,0.00
2019,04,21,00,58,0.00
2019,04,21,00,59,0.00
2019,04,21,01,00,0.00
2019,04,21,01,01,0.00
2019,04,21,01,02,0.00
2019,04,21,01,03,0.00
2019,04,21,01,04,0.00
2019,04,21,01,05,0.00
2019,04,21,01,06,0.00
2019,04,21,01,07,0.00
2019,04,21,01,08,0.00
2019,04,21,01,09,0.00
2019,04,21,01,10,0.00
2019,04,21,01,11,0.00
2019,04,21,01,12,0.00
2019,04,21,01,13,0.00
2019,04,21,01,14,0.00
2019,04,21,01,15,0.00
2019,04,21,01,16,0.00
2019,04,21,01,17,0.00
2019,04,21,01,18,0.00
2019,04,21,01,19,0.00
2019,04,21,01,20,0.00
2019,04,21,01,21,0.00
2019,04,21,01,22,0.00
2019,04,21,01,23,0.00
2019,04,21,01,24,0.00
2019,04,21,01,25,0.00
2019,04,21,01,26,0.00
2019,04,21,01,27,0.00
2019,04,21,01,28,0.00
2019,04,21,01,29,0.00
2019,04,21,01,30,0.00
2019,04,21,01,31,0.00
2019,04,21,01,32,0.00
2019,04,21,01,33,0.00
2019,04,21,01,34,0.00
2019,04,21,01,35,0.00
2019,04,21,01,36,0.00
2019,04,21,01,37,0.00
2019,04,21,01,38,0.00
2019,04,21,01,39,0.00
2019,04,21,01,40,0.00
2019,04,21,01,41,0.00
2019,04,21,01,42,0.00
2019,04,21,01,43,0.00
2019,04,21,01,44,0.00
2019,04,21,01,45,0.00
2019,04,21,01,46,0.00
2019,04,21,01,47,0.00
2019,04,21,01,48,0.00
2019,04,21,01,49,0.00
2019,04,21,01,50,0.00
2019,04,21,01,51,0.00
2019,04,21,01,52,0.00
2019,04,21,01,53,0.00
2019,04,21,01,54,0.00
2019,04,21,01,55,0.00
2019,04,21,01,56,0.00
2019,04,21,01,57,0.00
2019,04,21,01,58,0.00
2019,04,21,01,59,0.00
2019,04,21,02,00,0.00
2019,04,21,02,01,0.00
2019,04,21,02,02,0.00
2019,04,21,02,03,0.00
2019,04,21,02,04,0.00
2019,04,21,02,05,0.00
2019,04,21,02,06,0.00
2019,04,21,02,07,0.00
2019,04,21,02,08,0.00
2019,04,21,02,09,0.00
2019,04,21,02,10,0.00
2019,04,21,02,11,0.00
2019,04,21,02,12,0.00
2019,04,21,02,13,0.00
2019,04,21,02,14,0.00
2019,04,21,02,15,0.00
2019,04,21,02,16,0.00
2019,04,21,02,17,0.00
2019,04,21,02,18,0.00
2019,04,21,02,19,0.00
2019,04,21,02,20,0.00
2019,04,21,02,21,0.00
2019,04,21,02,22,0.00
2019,04,21,02,23,0.00
2019,04,21,02,24,0.00
2019,04,21,02,25,0.00
2019,04,21,02,26,0.00
2019,04,21,02,27,0.00
2019,04,21,02,28,0.00
2019,04,21,02,29,0.00
2019,04,21,02,30,0.00
2019,04,21,02,31,0.00
2019,04,21,02,32,0.00
2019,04,21,02,33,0.00
2019,04,21,02,34,0.00
2019,04,21,02,35,0.00
2019,04,21,02,36,0.00
2019,04,21,02,37,0.00
2019,04,21,02,38,0.00
2019,04,21,02,39,0.00
2019,04,21,02,40,0.00
2019,04,21,02,41,0.00
2019,04,21,02,42,0.00
2019,04,21,02,43,0.00
2019,04,21,02,44,0.00
2019,04,21,02,45,0.00
2019,04,21,02,46,0.00
2019,04,21,02,47,0.00
2019,04,21,02,48,0.00
2019,04,21,02,49,0.00
2019,04,21,02,50,0.00
2019,04,21,02,51,0.00
2019,04,21,02,52,0.00
2019,04,21,02,53,0.00
2019,04,21,02,54,0.00
2019,04,21,02,55,0.00
2019,04,21,02,56,0.00
2019,04,21,02,57,0.00
2019,04,21,02,58,0.00
2019,04,21,02,59,0.00
2019,04,21,03,00,0.00
2019,04,21,03,01,0.00
2019,04,21,03,02,0.00
2019,04,21,03,03,0.00
2019,04,21,03,04,0.00
2019,04,21,03,05,0.00
2019,04,21,03,06,0.00
2019,04,21,03,07,0.00
2019,04,21,03,08,0.00
2019,04,21,03,09,0.00
2019,04,21,03,10,0.00
2019,04,21,03,11,0.00
2019,04,21,03,12,0.00
2019,04,21,03,13,0.00
2019,04,21,03,14,0.00
2019,04,21,03,15,0.00
2019,04,21,03,16,0.00
2019,04,21,03,17,0.00
2019,04,21,03,18,0.00
2019,04,21,03,19,0.00
2019,04,21,03,20,0.00
2019,04,21,03,21,0.00
2019,04,21,03,22,0.00
2019,04,21,03,23,0.00
2019,04,21,03,24,0.00
2019,04,21,03,25,0.00
2019,04,21,03,26,0.00
2019,04,21,03,27,0.00
2019,04,21,03,28,0.00
2019,04,21,03,29,0.00
2019,04,21,03,30,0.00
2019,04,21,03,31,0.00
2019,04,21,03,32,0.00
2019,04,21,03,33,0.00
2019,04,21,03,34,0.00
2019,04,21,03,35,0.00
2019,04,21,03,36,0.00
2019,04,21,03,37,0.00
2019,04,21,03,38,0.00
2019,04,21,03,39,0.00
2019,04,21,03,40,0.00
2019,04,21,03,41,0.00
2019,04,21,03,42,0.00
2019,04,21,03,43,0.00
2019,04,21,03,44,0.00
2019,04,21,03,45,0.00
2019,04,21,03,46,0.00
2019,04,21,03,47,0.00
2019,04,21,03,48,0.00
2019,04,21,03,49,0.00
2019,04,21,03,50,0.00
2019,04,21,03,51,0.00
2019,04,21,03,52,0.00
2019,04,21,03,53,0.00
2019,04,21,03,54,0.00
2019,04,21,03,55,0.00
2019,04,21,03,56,0.00
2019,04,21,03,57,0.00
2019,04,21,03,58,0.00
2019,04,21,03,59,0.00
2019,04,21,04,00,0.00
2019,04,21,04,01,0.00
2019,04,21,04,02,0.00
2019,04,21,04,03,0.00
2019,04,21,04,04,0.00
2019,04,21,04,05,0.00
2019,04,21,04,06,0.00
2019,04,21,04,07,0.00
2019,04,21,04,08,0.00
2019,04,21,04,09,0.00
2019,04,21,04,10,0.00
2019,04,21,04,11,0.00
2019,04,21,04,12,0.00
2019,04,21,04,13,0.00
2019,04,21,04,14,0.00
2019,04,21,04,15,0.00
2019,04,21,04,16,0.00
2019,04,21,04,17,0.00
2019,04,21,04,18,0.00
2019,04,21,04,19,0.00
2019,04,21,04,20,0.00
2019,04,21,04,21,0.00
2019,04,21,04,22,0.00
2019,04,21,04,23,0.00
2019,04,21,04,24,0.00
2019,04,21,04,25,0.00
2019,04,21,04,26,0.00
2019,04,21,04,27,0.00
2019,04,21,04,28,0.00
2019,04,21,04,29,0.00
2019,04,21,04,30,0.00
2019,04,21,04,31,0.00
2019,04,21,04,32,0.00
2019,04,21,04,33,0.00
2019,04,21,04,34,0.00
2019,04,21,04,35,0.00
2019,04,21,04,36,0.00
2019,04,21,04,37,0.00
2019,04,21,04,38,0.00
2019,04,21,04,39,0.00
2019,04,21,04,40,0.00
2019,04,21,04,41,0.00
2019,04,21,04,42,0.00
2019,04,21,04,43,0.00
2019,04,21,04,44,0.00
2019,04,21,04,45,0.00
2019,04,21,04,46,0.00
2019,04,21,04,47,0.00
2019,04,21,04,48,0.00
2019,04,21,04,49,0.00
2019,04,21,04,50,0.00
2019,04,21,04,51,0.00
2019,04,21,04,52,0.00
2019,04,21,04,53,0.00
2019,04,21,04,54,0.00
2019,04,21,04,55,0.00
2019,04,21,04,56,0.00
2019,04,21,04,57,0.00
2019,04,21,04,58,0.00
2019,04,21,04,59,0.00
2019,04,21,05,00,0.00
2019,04,21,05,01,0.00
2019,04,21,05,02,0.00
2019,04,21,05,03,0.00
2019,04,21,05,04,0.00
2019,04,21,05,05,0.00
2019,04,21,05,06,0.00
2019,04,21,05,07,0.00
2019,04,21,05,08,0.00
2019,04,21,05,09,0.00
2019,04,21,05,10,0.00
2019,04,21,05,11,0.00
2019,04,21,05,12,0.00
2019,04,21,05,13,0.00
2019,04,21,05,14,0.00
2019,04,21,05,15,0.00
2019,04,21,05,16,0.00
2019,04,21,05,17,0.00
2019,04,21,05,18,0.00
2019,04,21,05,19,0.00
2019,04,21,05,20,0.00
2019,04,21,05,21,0.00
2019,04,21,05,22,0.00
2019,04,21,05,23,0.00
2019,04,21,05,24,0.00
2019,04,21,05,25,0.00
2019,04,21,05,26,0.00
2019,04,21,05,27,0.00
2019,04,21,05,28,0.00
2019,04,21,05,29,0.00
2019,04,21,05,30,0.00
2019,04,21,05,31,0.00
2019,04,21,05,32,0.00
2019,04,21,05,33,0.00
2019,04,21,05,34,0.00
2019,04,21,05,35,0.00
2019,04,21,05,36,0.00
2019,04,21,05,37,0.00
2019,04,21,05,38,0.00
2019,04,21,05,39,0.00
2019,04,21,05,40,0.00
2019,04,21,05,41,0.00
2019,04,21,05,42,0.00
2019,04,21,05,43,0.00
2019,04,21,05,44,0.00
2019,04,21,05,45,0.00
2019,04,21,05,46,0.00
2019,04,21,05,47,0.00
2019,04,21,05,48,0.00
2019,04,21,05,49,0.00
2019,04,21,05,50,0.00
2019,04,21,05,51,0.00
2019,04,21,05,52,0.00
2019,04,21,05,53,0.00
2019,04,21,05,54,0.00
2019,04,21,05,55,0.00
2019,04,21,05,56,0.00
2019,04,21,05,57,0.00
2019,04,21,05,58,0.00
2019,04,21,05,59,0.00
2019,04,21,06,00,0.00
2019,04,21,06,01,0.00
2019,04,21,06,02,0.00
2019,04,21,06,03,0.00
2019,04,21,06,04,0.00
2019,04,21,06,05,0.00
2019,04,21,06,06,0.00
2019,04,21,06,07,0.00
2019,04,21,06,08,0.00
2019,04,21,06,09,0.00
2019,04,21,06,10,1.50
2019,04,21,06,11,5.00
2019,04,21,06,12,5.00
2019,04,21,06,13,5.00
2019,04,21,06,14,5.00
2019,04,21,06,15,5.00
2019,04,21,06,16,5.10
2019,04,21,06,17,7.00
2019,04,21,06,18,7.00
2019,04,21,06,19,7.00
2019,04,21,06,20,7.90
2019,04,21,06,21,9.00
2019,04,21,06,22,10.30
2019,04,21,06,23,11.00
2019,04,21,06,24,11.90
2019,04,21,06,25,12.00
2019,04,21,06,26,12.40
2019,04,21,06,27,14.00
2019,04,21,06,28,14.00
2019,04,21,06,29,14.90
2019,04,21,06,30,16.00
2019,04,21,06,31,16.00
2019,04,21,06,32,17.60
2019,04,21,06,33,18.00
2019,04,21,06,34,19.00
2019,04,21,06,35,19.40
2019,04,21,06,36,21.60
2019,04,21,06,37,23.00
2019,04,21,06,38,21.90
2019,04,21,06,39,21.00
2019,04,21,06,40,21.00
2019,04,21,06,41,21.00
2019,04,21,06,42,20.90
2019,04,21,06,43,19.00
2019,04,21,06,44,19.00
2019,04,21,06,45,19.00
2019,04,21,06,46,20.00
2019,04,21,06,47,23.20
2019,04,21,06,48,25.00
2019,04,21,06,49,22.00
2019,04,21,06,50,25.50
2019,04,21,06,51,39.50
2019,04,21,06,52,44.80
2019,04,21,06,53,49.60
2019,04,21,06,54,47.20
2019,04,21,06,55,39.50
2019,04,21,06,56,40.00
2019,04,21,06,57,48.30
2019,04,21,06,58,51.00
2019,04,21,06,59,49.10
2019,04,21,07,00,48.00
2019,04,21,07,01,28.20
2019,04,21,07,02,23.00
2019,04,21,07,03,23.00
2019,04,21,07,04,23.00
2019,04,21,07,05,24.30
2019,04,21,07,06,25.80
2019,04,21,07,07,27.70
2019,04,21,07,08,31.70
2019,04,21,07,09,56.40
2019,04,21,07,10,90.20
2019,04,21,07,11,103.60
2019,04,21,07,12,106.50
2019,04,21,07,13,108.10
2019,04,21,07,14,114.30
2019,04,21,07,15,116.00
2019,04,21,07,16,132.20
2019,04,21,07,17,153.90
2019,04,21,07,18,164.90
2019,04,21,07,19,181.30
2019,04,21,07,20,194.10
2019,04,21,07,21,180.00
2019,04,21,07,22,168.20
2019,04,21,07,23,182.20
2019,04,21,07,24,191.10
2019,04,21,07,25,187.70
2019,04,21,07,26,175.40
2019,04,21,07,27,168.90
2019,04,21,07,28,172.80
2019,04,21,07,29,159.00
2019,04,21,07,30,164.00
2019,04,21,07,31,149.20
2019,04,21,07,32,144.20
2019,04,21,07,33,154.90
2019,04,21,07,34,141.60
2019,04,21,07,35,151.40
2019,04,21,07,36,94.90
2019,04,21,07,37,87.30
2019,04,21,07,38,82.30
2019,04,21,07,39,79.70
2019,04,21,07,40,77.60
2019,04,21,07,41,76.20
2019,04,21,07,42,75.90
2019,04,21,07,43,73.40
2019,04,21,07,44,69.80
2019,04,21,07,45,68.30
2019,04,21,07,46,66.10
2019,04,21,07,47,63.80
2019,04,21,07,48,60.90
2019,04,21,07,49,57.00
2019,04,21,07,50,54.20
2019,04,21,07,51,54.30
2019,04,21,07,52,61.00
2019,04,21,07,53,66.10
2019,04,21,07,54,69.40
2019,04,21,07,55,72.00
2019,04,21,07,56,75.20
2019,04,21,07,57,78.10
2019,04,21,07,58,80.60
2019,04,21,07,59,81.00
2019,04,21,08,00,83.20
2019,04,21,08,01,84.40
2019,04,21,08,02,87.40
2019,04,21,08,03,91.30
2019,04,21,08,04,95.20
2019,04,21,08,05,98.90
2019,04,21,08,06,102.90
2019,04,21,08,07,104.80
2019,04,21,08,08,109.00
2019,04,21,08,09,111.50
2019,04,21,08,10,115.00
2019,04,21,08,11,118.70
2019,04,21,08,12,120.00
2019,04,21,08,13,120.00
2019,04,21,08,14,120.00
2019,04,21,08,15,120.80
2019,04,21,08,16,121.00
2019,04,21,08,17,123.20
2019,04,21,08,18,125.40
2019,04,21,08,19,127.00
2019,04,21,08,20,127.00
2019,04,21,08,21,127.00
2019,04,21,08,22,127.60
2019,04,21,08,23,129.50
2019,04,21,08,24,133.20
2019,04,21,08,25,136.80
2019,04,21,08,26,139.40
2019,04,21,08,27,142.50
2019,04,21,08,28,144.70
2019,04,21,08,29,146.00
2019,04,21,08,30,143.70
2019,04,21,08,31,138.80
2019,04,21,08,32,131.80
2019,04,21,08,33,123.70
2019,04,21,08,34,120.10
2019,04,21,08,35,117.40
2019,04,21,08,36,113.70
2019,04,21,08,37,112.20
2019,04,21,08,38,110.00
2019,04,21,08,39,106.70
2019,04,21,08,40,104.30
2019,04,21,08,41,104.80
2019,04,21,08,42,108.60
2019,04,21,08,43,114.30
2019,04,21,08,44,116.40
2019,04,21,08,45,118.90
2019,04,21,08,46,122.80
2019,04,21,08,47,128.50
2019,04,21,08,48,136.60
2019,04,21,08,49,143.90
2019,04,21,08,50,151.90
2019,04,21,08,51,153.70
2019,04,21,08,52,159.40
2019,04,21,08,53,154.20
2019,04,21,08,54,147.10
2019,04,21,08,55,144.90
2019,04,21,08,56,146.00
2019,04,21,08,57,148.10
2019,04,21,08,58,154.60
2019,04,21,08,59,161.40
2019,04,21,09,00,165.20
2019,04,21,09,01,168.00
2019,04,21,09,02,173.40
2019,04,21,09,03,179.00
2019,04,21,09,04,182.00
2019,04,21,09,05,188.20
2019,04,21,09,06,193.50
2019,04,21,09,07,196.60
2019,04,21,09,08,199.80
2019,04,21,09,09,199.40
2019,04,21,09,10,202.50
2019,04,21,09,11,205.90
2019,04,21,09,12,211.40
2019,04,21,09,13,217.90
2019,04,21,09,14,224.90
2019,04,21,09,15,232.20
2019,04,21,09,16,242.10
2019,04,21,09,17,251.70
2019,04,21,09,18,259.40
2019,04,21,09,19,266.80
2019,04,21,09,20,271.00
2019,04,21,09,21,275.00
2019,04,21,09,22,283.80
2019,04,21,09,23,287.70
2019,04,21,09,24,292.60
2019,04,21,09,25,287.30
2019,04,21,09,26,279.00
2019,04,21,09,27,279.50
2019,04,21,09,28,277.80
2019,04,21,09,29,265.40
2019,04,21,09,30,257.50
2019,04,21,09,31,248.60
2019,04,21,09,32,238.00
2019,04,21,09,33,216.60
2019,04,21,09,34,206.90
2019,04,21,09,35,200.00
2019,04,21,09,36,206.30
2019,04,21,09,37,227.60
2019,04,21,09,38,255.60
2019,04,21,09,39,259.20
2019,04,21,09,40,233.30
2019,04,21,09,41,228.60
2019,04,21,09,42,241.60
2019,04,21,09,43,272.00
2019,04,21,09,44,302.30
2019,04,21,09,45,336.70
2019,04,21,09,46,368.00
2019,04,21,09,47,323.00
2019,04,21,09,48,358.00
2019,04,21,09,49,362.50
2019,04,21,09,50,393.70
2019,04,21,09,51,332.50
2019,04,21,09,52,371.00
2019,04,21,09,53,405.50
2019,04,21,09,54,425.00
2019,04,21,09,55,425.00
2019,04,21,09,56,425.00
2019,04,21,09,57,425.00
2019,04,21,09,58,425.00
2019,04,21,09,59,349.40
2019,04,21,10,00,392.00
2019,04,21,10,01,403.60
2019,04,21,10,02,432.60
2019,04,21,10,03,408.00
2019,04,21,10,04,471.30
2019,04,21,10,05,515.00
2019,04,21,10,06,562.90
2019,04,21,10,07,582.00
2019,04,21,10,08,569.70
2019,04,21,10,09,336.50
2019,04,21,10,10,328.80
2019,04,21,10,11,281.30
2019,04,21,10,12,238.70
2019,04,21,10,13,209.70
2019,04,21,10,14,229.10
2019,04,21,10,15,241.00
2019,04,21,10,16,481.50
2019,04,21,10,17,584.00
2019,04,21,10,18,554.80
2019,04,21,10,19,399.00
2019,04,21,10,20,574.00
2019,04,21,10,21,849.20
2019,04,21,10,22,766.20
2019,04,21,10,23,731.00
2019,04,21,10,24,480.60
2019,04,21,10,25,418.00
2019,04,21,10,26,703.00
2019,04,21,10,27,703.00
2019,04,21,10,28,642.10
2019,04,21,10,29,529.00
2019,04,21,10,30,667.00
2019,04,21,10,31,798.80
2019,04,21,10,32,809.00
2019,04,21,10,33,581.00
2019,04,21,10,34,582.80
2019,04,21,10,35,620.20
2019,04,21,10,36,626.70
2019,04,21,10,37,696.00
2019,04,21,10,38,748.20
2019,04,21,10,39,814.20
2019,04,21,10,40,816.00
2019,04,21,10,41,651.20
2019,04,21,10,42,610.00
2019,04,21,10,43,446.00
2019,04,21,10,44,446.00
2019,04,21,10,45,446.00
2019,04,21,10,46,446.00
2019,04,21,10,47,446.00
2019,04,21,10,48,632.00
2019,04,21,10,49,717.50
2019,04,21,10,50,665.30
2019,04,21,10,51,650.50
2019,04,21,10,52,604.50
2019,04,21,10,53,641.80
2019,04,21,10,54,605.00
2019,04,21,10,55,605.00
2019,04,21,10,56,605.00
2019,04,21,10,57,487.40
2019,04,21,10,58,436.00
2019,04,21,10,59,433.10
2019,04,21,11,00,432.20
2019,04,21,11,01,443.00
2019,04,21,11,02,443.00
2019,04,21,11,03,442.10
2019,04,21,11,04,451.90
2019,04,21,11,05,462.20
2019,04,21,11,06,425.30
2019,04,21,11,07,408.40
2019,04,21,11,08,408.00
2019,04,21,11,09,414.70
2019,04,21,11,10,441.80
2019,04,21,11,11,463.90
2019,04,21,11,12,433.10
2019,04,21,11,13,432.00
2019,04,21,11,14,478.10
2019,04,21,11,15,470.00
2019,04,21,11,16,427.50
2019,04,21,11,17,435.20
2019,04,21,11,18,399.00
2019,04,21,11,19,399.00
2019,04,21,11,20,399.00
2019,04,21,11,21,399.00
2019,04,21,11,22,399.00
2019,04,21,11,23,399.00
2019,04,21,11,24,399.00
2019,04,21,11,25,716.00
2019,04,21,11,26,772.00
2019,04,21,11,27,778.30
2019,04,21,11,28,805.00
2019,04,21,11,29,805.00
2019,04,21,11,30,805.00
2019,04,21,11,31,833.80
2019,04,21,11,32,799.80
2019,04,21,11,33,788.90
2019,04,21,11,34,734.70
2019,04,21,11,35,780.00
2019,04,21,11,36,692.20
2019,04,21,11,37,429.00
2019,04,21,11,38,553.20
2019,04,21,11,39,681.00
2019,04,21,11,40,663.00
2019,04,21,11,41,771.00
2019,04,21,11,42,869.40
2019,04,21,11,43,806.10
2019,04,21,11,44,725.40
2019,04,21,11,45,704.10
2019,04,21,11,46,715.60
2019,04,21,11,47,669.50
2019,04,21,11,48,647.40
2019,04,21,11,49,625.90
2019,04,21,11,50,591.60
2019,04,21,11,51,563.30
2019,04,21,11,52,537.90
2019,04,21,11,53,522.80
2019,04,21,11,54,506.00
2019,04,21,11,55,482.50
2019,04,21,11,56,466.50
2019,04,21,11,57,461.40
2019,04,21,11,58,463.20
2019,04,21,11,59,455.50
2019,04,21,12,00,439.40
2019,04,21,12,01,431.80
2019,04,21,12,02,431.80
2019,04,21,12,03,434.80
2019,04,21,12,04,437.50
2019,04,21,12,05,442.60
2019,04,21,12,06,445.70
2019,04,21,12,07,450.80
2019,04,21,12,08,443.90
2019,04,21,12,09,439.70
2019,04,21,12,10,446.00
2019,04,21,12,11,445.60
2019,04,21,12,12,447.20
2019,04,21,12,13,454.70
2019,04,21,12,14,478.50
2019,04,21,12,15,464.00
2019,04,21,12,16,460.80
2019,04,21,12,17,460.90
2019,04,21,12,18,459.80
2019,04,21,12,19,462.80
2019,04,21,12,20,459.70
2019,04,21,12,21,463.20
2019,04,21,12,22,512.90
2019,04,21,12,23,516.20
2019,04,21,12,24,499.00
2019,04,21,12,25,499.00
2019,04,21,12,26,471.70
2019,04,21,12,27,464.00
2019,04,21,12,28,463.10
2019,04,21,12,29,462.20
2019,04,21,12,30,469.50
2019,04,21,12,31,488.60
2019,04,21,12,32,535.50
2019,04,21,12,33,516.80
2019,04,21,12,34,549.70
2019,04,21,12,35,549.60
2019,04,21,12,36,545.50
2019,04,21,12,37,533.30
2019,04,21,12,38,516.20
2019,04,21,12,39,518.10
2019,04,21,12,40,564.00
2019,04,21,12,41,593.20
2019,04,21,12,42,649.50
2019,04,21,12,43,664.00
2019,04,21,12,44,759.00
2019,04,21,12,45,705.30
2019,04,21,12,46,569.30
2019,04,21,12,47,555.50
2019,04,21,12,48,559.00
2019,04,21,12,49,559.00
2019,04,21,12,50,470.20
2019,04,21,12,51,441.70
2019,04,21,12,52,514.10
2019,04,21,12,53,441.00
2019,04,21,12,54,441.00
2019,04,21,12,55,441.00
2019,04,21,12,56,574.70
2019,04,21,12,57,684.00
2019,04,21,12,58,519.70
2019,04,21,12,59,493.00
2019,04,21,13,00,596.60
2019,04,21,13,01,653.70
2019,04,21,13,02,680.00
2019,04,21,13,03,680.00
2019,04,21,13,04,609.00
2019,04,21,13,05,499.50
2019,04,21,13,06,454.30
2019,04,21,13,07,425.50
2019,04,21,13,08,407.80
2019,04,21,13,09,395.70
2019,04,21,13,10,387.80
2019,04,21,13,11,387.00
2019,04,21,13,12,387.40
2019,04,21,13,13,390.00
2019,04,21,13,14,395.00
2019,04,21,13,15,401.20
2019,04,21,13,16,405.40
2019,04,21,13,17,407.80
2019,04,21,13,18,407.30
2019,04,21,13,19,402.50
2019,04,21,13,20,401.70
2019,04,21,13,21,403.50
2019,04,21,13,22,407.30
2019,04,21,13,23,416.30
2019,04,21,13,24,439.50
2019,04,21,13,25,477.50
2019,04,21,13,26,479.30
2019,04,21,13,27,441.20
2019,04,21,13,28,420.50
2019,04,21,13,29,436.80
2019,04,21,13,30,469.00
2019,04,21,13,31,519.10
2019,04,21,13,32,512.90
2019,04,21,13,33,480.20
2019,04,21,13,34,476.00
2019,04,21,13,35,474.30
2019,04,21,13,36,450.60
2019,04,21,13,37,411.00
2019,04,21,13,38,405.00
2019,04,21,13,39,430.20
2019,04,21,13,40,460.50
2019,04,21,13,41,490.00
2019,04,21,13,42,513.10
2019,04,21,13,43,515.40
2019,04,21,13,44,483.60
2019,04,21,13,45,476.00
2019,04,21,13,46,480.50
2019,04,21,13,47,468.50
2019,04,21,13,48,437.90
2019,04,21,13,49,427.50
2019,04,21,13,50,438.50
2019,04,21,13,51,415.00
2019,04,21,13,52,393.10
2019,04,21,13,53,384.20
2019,04,21,13,54,382.90
2019,04,21,13,55,393.40
2019,04,21,13,56,416.00
2019,04,21,13,57,434.40
2019,04,21,13,58,450.50
2019,04,21,13,59,456.60
2019,04,21,14,00,460.60
2019,04,21,14,01,463.90
2019,04,21,14,02,480.80
2019,04,21,14,03,477.80
2019,04,21,14,04,468.50
2019,04,21,14,05,452.50
2019,04,21,14,06,435.80
2019,04,21,14,07,428.70
2019,04,21,14,08,434.60
2019,04,21,14,09,434.40
2019,04,21,14,10,404.00
2019,04,21,14,11,405.20
2019,04,21,14,12,410.00
2019,04,21,14,13,416.50
2019,04,21,14,14,444.30
2019,04,21,14,15,443.80
2019,04,21,14,16,447.20
2019,04,21,14,17,497.70
2019,04,21,14,18,538.00
2019,04,21,14,19,538.00
2019,04,21,14,20,525.80
2019,04,21,14,21,497.50
2019,04,21,14,22,498.80
2019,04,21,14,23,452.70
2019,04,21,14,24,406.10
2019,04,21,14,25,393.00
2019,04,21,14,26,390.80
2019,04,21,14,27,364.20
2019,04,21,14,28,349.80
2019,04,21,14,29,336.80
2019,04,21,14,30,323.50
2019,04,21,14,31,312.00
2019,04,21,14,32,300.90
2019,04,21,14,33,294.80
2019,04,21,14,34,294.00
2019,04,21,14,35,295.70
2019,04,21,14,36,303.20
2019,04,21,14,37,308.30
2019,04,21,14,38,309.00
2019,04,21,14,39,308.50
2019,04,21,14,40,304.10
2019,04,21,14,41,298.20
2019,04,21,14,42,293.00
2019,04,21,14,43,287.00
2019,04,21,14,44,280.20
2019,04,21,14,45,276.00
2019,04,21,14,46,272.10
2019,04,21,14,47,262.80
2019,04,21,14,48,257.20
2019,04,21,14,49,251.80
2019,04,21,14,50,247.00
2019,04,21,14,51,241.70
2019,04,21,14,52,236.70
2019,04,21,14,53,233.60
2019,04,21,14,54,232.50
2019,04,21,14,55,234.00
2019,04,21,14,56,234.00
2019,04,21,14,57,234.00
2019,04,21,14,58,232.60
2019,04,21,14,59,232.00
2019,04,21,15,00,232.00
2019,04,21,15,01,231.70
2019,04,21,15,02,229.80
2019,04,21,15,03,228.30
2019,04,21,15,04,225.20
2019,04,21,15,05,221.40
2019,04,21,15,06,217.30
2019,04,21,15,07,213.80
2019,04,21,15,08,209.60
2019,04,21,15,09,207.10
2019,04,21,15,10,207.00
2019,04,21,15,11,207.50
2019,04,21,15,12,209.80
2019,04,21,15,13,212.00
2019,04,21,15,14,213.60
2019,04,21,15,15,213.40
2019,04,21,15,16,210.00
2019,04,21,15,17,207.20
2019,04,21,15,18,207.00
2019,04,21,15,19,207.00
2019,04,21,15,20,208.20
2019,04,21,15,21,212.20
2019,04,21,15,22,217.00
2019,04,21,15,23,221.80
2019,04,21,15,24,224.40
2019,04,21,15,25,225.00
2019,04,21,15,26,225.00
2019,04,21,15,27,225.30
2019,04,21,15,28,227.50
2019,04,21,15,29,230.10
2019,04,21,15,30,235.10
2019,04,21,15,31,243.90
2019,04,21,15,32,254.50
2019,04,21,15,33,265.20
2019,04,21,15,34,273.30
2019,04,21,15,35,279.00
2019,04,21,15,36,278.80
2019,04,21,15,37,276.50
2019,04,21,15,38,269.00
2019,04,21,15,39,261.30
2019,04,21,15,40,255.00
2019,04,21,15,41,251.60
2019,04,21,15,42,251.00
2019,04,21,15,43,252.90
2019,04,21,15,44,255.30
2019,04,21,15,45,258.80
2019,04,21,15,46,262.00
2019,04,21,15,47,260.20
2019,04,21,15,48,253.60
2019,04,21,15,49,243.10
2019,04,21,15,50,233.80
2019,04,21,15,51,229.40
2019,04,21,15,52,225.00
2019,04,21,15,53,222.40
2019,04,21,15,54,218.90
2019,04,21,15,55,214.20
2019,04,21,15,56,209.00
2019,04,21,15,57,204.00
2019,04,21,15,58,202.00
2019,04,21,15,59,202.00
2019,04,21,16,00,206.70
2019,04,21,16,01,213.70
2019,04,21,16,02,221.40
2019,04,21,16,03,228.60
2019,04,21,16,04,233.60
2019,04,21,16,05,237.60
2019,04,21,16,06,239.00
2019,04,21,16,07,237.50
2019,04,21,16,08,236.10
2019,04,21,16,09,230.30
2019,04,21,16,10,230.60
2019,04,21,16,11,241.00
2019,04,21,16,12,269.70
2019,04,21,16,13,283.90
2019,04,21,16,14,287.90
2019,04,21,16,15,299.80
2019,04,21,16,16,322.20
2019,04,21,16,17,327.00
2019,04,21,16,18,309.80
2019,04,21,16,19,301.00
2019,04,21,16,20,277.40
2019,04,21,16,21,263.40
2019,04,21,16,22,254.00
2019,04,21,16,23,248.70
2019,04,21,16,24,251.20
2019,04,21,16,25,256.20
2019,04,21,16,26,257.90
2019,04,21,16,27,260.00
2019,04,21,16,28,261.00
2019,04,21,16,29,266.80
2019,04,21,16,30,279.20
2019,04,21,16,31,294.00
2019,04,21,16,32,299.00
2019,04,21,16,33,302.80
2019,04,21,16,34,302.30
2019,04,21,16,35,319.20
2019,04,21,16,36,323.30
2019,04,21,16,37,339.50
2019,04,21,16,38,392.50
2019,04,21,16,39,408.00
2019,04,21,16,40,444.60
2019,04,21,16,41,429.30
2019,04,21,16,42,383.00
2019,04,21,16,43,371.50
2019,04,21,16,44,366.50
2019,04,21,16,45,364.80
2019,04,21,16,46,351.00
2019,04,21,16,47,371.70
2019,04,21,16,48,390.50
2019,04,21,16,49,398.00
2019,04,21,16,50,393.80
2019,04,21,16,51,374.30
2019,04,21,16,52,358.50
2019,04,21,16,53,364.10
2019,04,21,16,54,312.00
2019,04,21,16,55,314.50
2019,04,21,16,56,289.60
2019,04,21,16,57,271.60
2019,04,21,16,58,259.20
2019,04,21,16,59,254.00
2019,04,21,17,00,253.00
2019,04,21,17,01,250.20
2019,04,21,17,02,258.20
2019,04,21,17,03,300.30
2019,04,21,17,04,330.50
2019,04,21,17,05,356.30
2019,04,21,17,06,383.70
2019,04,21,17,07,383.00
2019,04,21,17,08,391.20
2019,04,21,17,09,390.00
2019,04,21,17,10,376.80
2019,04,21,17,11,327.80